This demonstration page uses our WeatherBlox Daily Observations layout. Learn more.

Left ArrowRight Arrow

Hourly Observations for November 2, 2016

Temp ( °F °C ) Dew Point ( °F °C ) Humidity (%) Winds ( mph kmh ) Pressure ( in mb ) Visibility ( mi km ) Precip ( " mm )
12:59 am 00:59 Mostly Cloudy 53 11.7 50 10 89 89 Calm 30.33 1027 10 16 0.00 0.00
1:59 am 01:59 Mostly Cloudy 53 11.7 50 10 89 89 Calm 30.32 1027 9 14 0.00 0.00
2:59 am 02:59 Partly Cloudy 53 11.7 51 10.6 93 93 Calm 30.33 1027 10 16 0.00 0.00
3:59 am 03:59 Mostly Cloudy 53 11.7 51 10.6 93 93 Calm 30.32 1027 8 13 0.00 0.00
4:59 am 04:59 Mostly Cloudy 54 12.2 52 11.1 93 93 Calm 30.33 1027 10 16 0.00 0.00
5:59 am 05:59 Mostly Cloudy 55 12.8 53 11.7 93 93 Calm 30.34 1027 10 16 0.00 0.00
6:19 am 06:19 Cloudy 55 12.8 53 11.7 93 93 Calm 30.33 1027 10 16 0.00 0.00
6:59 am 06:59 Mostly Cloudy 55 12.8 53 11.7 93 93 Calm 30.33 1027 10 16 0.00 0.00
7:59 am 07:59 Partly Cloudy 55 12.8 53 11.7 93 93 Calm 30.34 1027 10 16 0.00 0.00
8:59 am 08:59 Mostly Cloudy 60 15.6 55 12.8 84 84 Calm 30.34 1028 10 16 0.00 0.00
9:59 am 09:59 Mostly Sunny 64 17.8 57 13.9 78 78 SSW 3 6 30.34 1027 10 16 0.00 0.00
10:59 am 10:59 Partly Cloudy 68 20 55 12.8 63 63 SSW 8 13 30.33 1027 10 16 0.00 0.00
11:59 am 11:59 Partly Cloudy 70 21.1 58 14.4 66 66 SW 9 15 30.30 1026 8 13 0.00 0.00
12:59 pm 12:59 Partly Cloudy 72 22.2 59 15 64 64 SW 10 17 30.28 1025 8 13 0.00 0.00
1:59 pm 13:59 Partly Cloudy 74 23.3 60 15.6 62 62 SW 9 15 30.25 1024 8 13 0.00 0.00
2:59 pm 14:59 Partly Cloudy 76 24.4 61 16.1 60 60 VRB 6 9 30.23 1024 8 13 0.00 0.00
3:59 pm 15:59 Mostly Sunny 76 24.4 61 16.1 60 60 SSW 5 7 30.23 1024 8 13 0.00 0.00
4:59 pm 16:59 Mostly Sunny 75 23.9 61 16.1 62 62 SW 6 9 30.22 1023 8 13 0.00 0.00
5:59 pm 17:59 Mostly Sunny 71 21.7 61 16.1 71 71 SW 6 9 30.22 1023 8 13 0.00 0.00
6:59 pm 18:59 Clear 68 20 61 16.1 78 78 SW 3 6 30.22 1024 8 13 0.00 0.00
7:59 pm 19:59 Clear 67 19.4 61 16.1 81 81 SSW 5 7 30.23 1024 8 13 0.00 0.00
8:59 pm 20:59 Clear 67 19.4 61 16.1 81 81 SSW 6 9 30.22 1023 8 13 0.00 0.00
9:59 pm 21:59 Clear 66 18.9 61 16.1 84 84 SSW 6 9 30.22 1023 7 11 0.00 0.00
10:59 pm 22:59 Clear 66 18.9 61 16.1 84 84 SSW 6 9 30.21 1023 7 11 0.00 0.00
11:59 pm 23:59 Clear 65 18.3 60 15.6 84 84 SSW 7 11 30.20 1023 7 11 0.00 0.00

Powered by AerisWeather